DLH7PV EDDF-EGKK

Flight info

Callsign DLH7PV
Flight time N/A
Altitude 34000
Route OBOKA3W/25C OBOKA Z29 TORNU DCT BREDA DCT VICOT DCT GALSO Q63 ARREK Y4 TEBRA DCT ABTUM DCT ARNUN DCT LARCK
Aircraft A321/M-SDE3FGHIRWY/LB1

Departure

Time 2026-05-05 11:06
Airport Frankfurt Main Airport (EDDF)

Arrival

Time N/A
Airport London Gatwick Airport (EGKK)
Time Latitude Longitude Altitude Speed Heading
2026-05-05 10:15 50.04689 8.56695 356 ft 0 kts 115°
2026-05-05 10:48 50.04692 8.56682 362 ft 2 kts 117°
2026-05-05 10:48 50.04700 8.56660 360 ft 2 kts 126°
2026-05-05 10:48 50.04710 8.56639 358 ft 2 kts 135°
2026-05-05 10:49 50.04723 8.56623 363 ft 2 kts 165°
2026-05-05 10:49 50.04739 8.56624 363 ft 2 kts 222°
2026-05-05 10:49 50.04743 8.56630 364 ft 1 kts 233°
2026-05-05 10:49 50.04744 8.56630 364 ft 0 kts 234°
2026-05-05 10:53 50.04743 8.56629 356 ft 1 kts 233°
2026-05-05 10:53 50.04738 8.56619 356 ft 2 kts 233°
2026-05-05 10:54 50.04729 8.56599 364 ft 3 kts 233°
2026-05-05 10:54 50.04713 8.56568 360 ft 7 kts 230°
2026-05-05 10:54 50.04669 8.56442 362 ft 16 kts 248°
2026-05-05 10:54 50.04628 8.56273 360 ft 17 kts 251°
2026-05-05 10:55 50.04586 8.56097 357 ft 18 kts 250°
2026-05-05 10:55 50.04524 8.55956 362 ft 15 kts 200°
2026-05-05 10:55 50.04421 8.55910 360 ft 16 kts 187°
2026-05-05 10:55 50.04293 8.55957 360 ft 21 kts 163°
2026-05-05 10:56 50.04165 8.55930 355 ft 19 kts 163°
2026-05-05 10:56 50.04076 8.56028 355 ft 15 kts 99°
2026-05-05 10:56 50.04103 8.56183 355 ft 15 kts 70°
2026-05-05 10:56 50.04141 8.56335 361 ft 15 kts 68°
2026-05-05 10:57 50.04178 8.56484 358 ft 15 kts 71°
2026-05-05 10:57 50.04211 8.56631 361 ft 14 kts 70°
2026-05-05 10:57 50.04243 8.56766 361 ft 13 kts 70°
2026-05-05 10:57 50.04273 8.56890 363 ft 13 kts 69°
2026-05-05 10:58 50.04322 8.57092 367 ft 24 kts 69°
2026-05-05 10:58 50.04379 8.57335 364 ft 24 kts 70°
2026-05-05 10:58 50.04436 8.57578 365 ft 23 kts 69°
2026-05-05 10:58 50.04491 8.57810 366 ft 23 kts 69°
2026-05-05 10:59 50.04548 8.58045 365 ft 24 kts 70°
2026-05-05 10:59 50.04598 8.58250 369 ft 14 kts 68°
2026-05-05 10:59 50.04628 8.58376 368 ft 8 kts 70°
2026-05-05 10:59 50.04638 8.58421 370 ft 0 kts 70°
2026-05-05 11:01 50.04639 8.58423 370 ft 1 kts 70°
2026-05-05 11:01 50.04641 8.58433 369 ft 0 kts 70°
2026-05-05 11:03 50.04646 8.58456 373 ft 8 kts 70°
2026-05-05 11:03 50.04636 8.58558 370 ft 11 kts 142°
2026-05-05 11:03 50.04568 8.58605 373 ft 10 kts 159°
2026-05-05 11:03 50.04499 8.58595 370 ft 14 kts 216°
2026-05-05 11:04 50.04474 8.58533 372 ft 0 kts 248°
2026-05-05 11:05 50.04467 8.58506 373 ft 9 kts 248°
2026-05-05 11:05 50.04359 8.58061 370 ft 80 kts 250°
2026-05-05 11:05 50.04091 8.56931 363 ft 141 kts 250°
2026-05-05 11:06 50.03694 8.55252 378 ft 185 kts 250°
2026-05-05 11:06 50.03256 8.53410 1047 ft 182 kts 249°
2026-05-05 11:06 50.02814 8.51556 1743 ft 183 kts 249°
2026-05-05 11:06 50.02211 8.49738 2088 ft 199 kts 229°
2026-05-05 11:07 50.01092 8.48418 2544 ft 207 kts 205°
2026-05-05 11:07 49.99699 8.47856 3088 ft 209 kts 185°
2026-05-05 11:07 49.98251 8.47597 3695 ft 209 kts 187°
2026-05-05 11:07 49.96808 8.47288 4330 ft 210 kts 188°
2026-05-05 11:08 49.95368 8.46773 4828 ft 220 kts 197°
2026-05-05 11:08 49.93830 8.46049 5200 ft 240 kts 197°
2026-05-05 11:08 49.92243 8.45167 5932 ft 246 kts 209°
2026-05-05 11:08 49.90921 8.43477 6645 ft 249 kts 231°
2026-05-05 11:09 49.89985 8.41196 7276 ft 252 kts 238°
2026-05-05 11:09 49.89121 8.38811 7922 ft 256 kts 246°
2026-05-05 11:09 49.88669 8.36091 8325 ft 272 kts 267°
2026-05-05 11:09 49.89038 8.33161 8736 ft 286 kts 295°
2026-05-05 11:10 49.90300 8.30766 9300 ft 293 kts 322°
2026-05-05 11:10 49.91960 8.28900 9913 ft 296 kts 323°